Location: Dessau
(51.7984°N, 12.2168°E)
Time: 18:48:46
(UTC+02:00)

ISS - Pass Details

Date: 04 January 2018
Orbit: 402 x 408 km, 51.6° (Epoch: 22 July)

Event Time Altitude Azimuth Distance (km) Brightness Sun altitude
Exits shadow 07:00:33 16° 271° (W) 1,183 -2.1 -11.1°
Maximum altitude 07:03:08 89° 205° (SSW) 425 -3.8 -10.8°
Drops below altitude 10° 07:06:32 10° 93° (E) 1,507 0.3 -10.3°
Sets 07:08:38 0° 93° (E) 2,374 1.6 -10.0°
